Search your local weather  

 

Hazardous Weather Conditions

No active alerts for LOS ANGELES, CALIFORNIA

Current Conditions: LOS ANGELES, CALIFORNIA

Fair


67.0 F

Last Updated on Mar 31 2020, 3:51 pm PDT
Humidity: 51%
Wind Speed: W 8.1 mph
Barometer 29.94 in
Dewpoint: 48.0 F
Visibility: 10.00 mi
Precip: --
Heat Index: NA
Wind Chill: NA
Current conditions at:

Santa Monica, Santa Monica Municipal Airport, CA (KSMO)

Lat: 34.01583 Lon: -118.45139

Local Radar Image active severe weather and emergency alerts image image weather storm and storm spotter reports image weather observation monitoring service image
Local
Radar
Active
Alerts
Storm Reports Weather
Monitoring

5 Day Forecast for LOS ANGELES, CALIFORNIA (90001)

Tuesday

Partly Sunny

High 76 °F
Tuesday
Night
Partly Cloudy

Low 56 °F
Wednesday

Fog

High 73 °F
Wednesday
Night
Overnight Fog
Low 55 °F
Thursday

Fog

High 70 °F
Thursday
Night
Overcast

Low 53 °F
Friday

Mostly Sunny

High 72 °F
Friday
Night
Mostly Clear

Low 53 °F
Saturday

Mostly Sunny

High 70 °F

Sign-up For Email & Text Message Weather Alert Notification Services


Advertise Here

Observation History for LOS ANGELES, CALIFORNIA


Time Wind
(mph)
Vis
(mi)
Weather Precip (in) Temperature (F) Relative
Humidity
Wind
Chill
(F)
Heat
Index
(F)
Pressure
Air Dwpt altimeter
(in)
sea level
(mb)
3:51 pm PDT W 8.1 10.00 Fair -- 67.0 48.0 51% NA NA 29.94 1013.9
2:51 pm PDT SW 9.2 10.00 Fair -- 68.0 48.0 49% NA NA 29.96 1014.4
1:51 pm PDT SW 6.9 10.00 Fair -- 67.0 48.9 53% NA NA 29.97 1014.9
12:51 pm PDT W 6.9 10.00 Fair -- 66.0 48.0 52% NA NA 30.00 1015.9
11:51 am PDT SW 6.9 10.00 Fair -- 67.0 46.9 49% NA NA 30.03 1016.7
10:51 am PDT SW 5.8 10.00 Fair -- 68.0 48.0 49% NA NA 30.04 1017.2
9:51 am PDT N 0.0 10.00 Fair -- 64.0 48.9 58% NA NA 30.05 1017.6
8:51 am PDT N 0.0 10.00 Fair -- 59.0 51.1 75% NA NA 30.07 1018.0
7:51 am PDT N 0.0 10.00 Fair -- 55.0 48.0 77% NA NA 30.08 1018.3
6:51 am PDT N 0.0 10.00 Fair -- 53.0 46.9 80% NA NA 30.07 1018.3
5:51 am PDT N 0.0 10.00 Fair -- 52.0 46.9 83% NA NA 30.06 1017.9
4:51 am PDT N 0.0 10.00 Fair -- 53.0 48.9 86% NA NA 30.07 1018.0
3:51 am PDT N 0.0 10.00 Fair -- 53.0 48.9 86% NA NA 30.09 1018.8
2:51 am PDT N 0.0 10.00 Fair -- 53.0 48.9 86% NA NA 30.10 1019.3
1:51 am PDT E 3.5 10.00 Fair -- 52.0 48.9 89% NA NA 30.12 1019.9
12:51 am PDT N 3.5 10.00 Fair -- 54.0 50.0 87% NA NA 30.14 1020.5
11:51 pm PDT N 0.0 10.00 Fair -- 54.0 50.0 87% NA NA 30.16 1021.4
10:51 pm PDT N 0.0 10.00 Fair -- 55.0 51.1 87% NA NA 30.18 1021.8
9:51 pm PDT N 0.0 10.00 Fair -- 56.0 52.0 87% NA NA 30.19 1022.1
8:51 pm PDT N 0.0 10.00 Fair -- 57.0 51.1 81% NA NA 30.17 1021.7
7:51 pm PDT SW 5.8 10.00 Fair -- 58.0 51.1 78% 57 NA 30.16 1021.2
6:51 pm PDT SW 6.9 10.00 Fair -- 59.0 52.0 78% 58 NA 30.15 1020.8
5:51 pm PDT W 9.2 10.00 Fair -- 60.0 52.0 75% 59 NA 30.15 1020.7

Regional Weather Observation

Los Angeles / USC Campus Downtown, CA (KCQT)

Fair
75.0 F

Burbank - Bob Hope Airport, CA (KBUR)

Fair
76.0 F

Los Angeles, Whiteman Airport, CA (KWHP)

Clear
77.0 F

El Monte, CA (KEMT)

Fair
77.0 F

Los Angeles, Los Angeles International Airport, CA (KLAX)

Mostly Cloudy
68.0 F

Hawthorne, Hawthorne Municipal Airport, CA (KHHR)

Fair
69.0 F

Advertise Here

Advertise Here